www.pogodaiklimat.ru

Погода и климат >> Архив погоды >> Япония >> Хитоёси


ПОГОДА в Хитоёси

  • Прогноз погоды в Хитоёси
  • Монитор погоды в Хитоёси

АРХИВ ПОГОДЫ в Хитоёси

Время (UTC), дата Ветер
(напр.,м/с)
 
Видим.   Явления Облачность Т
(С)
Тd
(С)
f
(%)
Тe
(С)
Тes
(С)
Комфортность P
(гПа)
Po
(гПа)
Тmin
(С)
Tmax
(С)
R
(мм)
R24
(мм)
S
(см)
03 16.09 СЗ 2 15 км н/о +32.0 +22.4 57 +41 +41 опасность
перегрева
1003.4 987.2
04 16.09 СЗ 2 20 км н/о +31.9 +22.3 57 +41 +41 опасность
перегрева
1003.0 986.8
05 16.09 З 2 20 км н/о +31.8 +21.9 56 +40 +40 очень
душно
1002.5 986.3
07 16.09 З 2 20 км н/о +30.1 +21.5 60 +38 +38 очень
душно
1002.4 986.1
08 16.09 З 2 20 км н/о +29.1 +21.3 63 +37 +37 очень
душно
1002.9 986.5
09 16.09 З 1 20 км н/о +27.5 +21.1 68 +35 +35 очень
душно
1003.4 986.9
10 16.09 З 1 20 км н/о +26.0 +20.6 72 +32 +32 очень
душно
1004.0 987.4
11 16.09 З 1 20 км н/о +25.2 +19.6 71 +31 +31 очень
душно
1004.9 988.3
12 16.09 З 1 20 км н/о +24.2 +18.4 70 +29 +29 душно 1005.8 989.1 +32.3
13 16.09 З 1 20 км н/о +23.6 +17.6 69 +28 +28 душно 1006.3 989.5
14 16.09 З 1 20 км н/о +23.0 +17.7 72 +28 +28 душно 1006.4 989.6
15 16.09 З 1 20 км н/о +22.2 +17.8 76 +27 +27 душно 1006.8 989.9
16 16.09 СЗ 1 20 км н/о +21.5 +18.1 81 +26 +26 душно 1006.8 989.9
17 16.09 В 1 20 км н/о +21.3 +18.1 82 +26 +26 душно 1006.9 990.0
18 16.09 З 1 20 км н/о +21.1 +17.9 82 +25 +25 комфорт 1007.0 990.1
19 16.09 З 1 20 км н/о +20.4 +18.5 89 +26 +26 душно 1007.3 990.3
20 16.09 СЗ 1 20 км н/о +20.1 +18.4 90 +25 +25 комфорт 1007.8 990.8
21 16.09 С 1 20 км н/о +19.8 +18.6 93 +24 +24 комфорт 1008.6 991.5
22 16.09 ЮЗ 1 20 км н/о +20.6 +18.7 89 +26 +26 душно 1008.9 991.9
23 16.09 Ю 1 20 км н/о +22.4 +18.8 80 +28 +28 душно 1009.1 992.2
01 17.09 СЗ 1 20 км н/о +25.9 +18.3 63 +31 +31 очень
душно
1009.2 992.5
02 17.09 С 1 20 км н/о +28.3 +18.4 55 +33 +33 очень
душно
1008.3 991.8
03 17.09 С 2 20 км н/о +30.2 +15.5 41 +33 +33 душно 1007.7 991.3
04 17.09 З 2 20 км н/о +31.4 +17.0 42 +35 +35 очень
душно
1007.0 990.7
05 17.09 З 2 20 км н/о +31.7 +18.7 46 +37 +37 очень
душно
1006.6 990.3
06 17.09 З 1 20 км н/о +31.4 +20.4 52 +38 +38 очень
душно
1006.3 990.0
07 17.09 СЗ 2 20 км н/о +30.7 +20.9 56 +38 +38 очень
душно
1006.6 990.2
08 17.09 З 1 20 км н/о +29.6 +20.7 59 +37 +37 очень
душно
1007.0 990.6
09 17.09 Ю 2 20 км н/о +28.5 +20.3 61 +35 +35 очень
душно
1007.6 991.1
11 17.09 З 1 20 км н/о +26.4 +19.8 67 +32 +32 очень
душно
1009.1 992.5
12 17.09 ЮЗ 1 20 км н/о +26.2 +19.4 66 +32 +32 очень
душно
1009.9 993.2 +32.5
13 17.09 СЗ 2 20 км н/о +24.3 +21.2 83 +31 +31 очень
душно
1010.4 993.6
14 17.09 СЗ 1 20 км н/о +23.2 +20.7 86 +31 +31 очень
душно
1010.7 993.8
15 17.09 З 1 20 км н/о +22.6 +20.7 89 +29 +29 очень
душно
1010.7 993.8
16 17.09 З 1 20 км н/о +21.9 +20.4 91 +28 +28 душно 1010.4 993.5
18 17.09 З 1 20 км н/о +20.7 +19.9 95 +27 +27 душно 1010.2 993.2
20 17.09 СЗ 1 19 км н/о +20.6 +19.8 95 +26 +26 душно 1010.4 993.4
23 17.09 ЮВ 1 20 км н/о +22.9 +20.4 86 +30 +30 очень
душно
1011.3 994.4
00 18.09 ЮВ 2 20 км н/о +25.0 +19.6 72 +30 +30 душно 1011.2 994.4 +20.0
01 18.09 В 2 20 км н/о +27.4 +20.5 66 +34 +34 очень
душно
1010.8 994.2
02 18.09 Ю 1 20 км н/о +28.4 +20.2 61 +35 +35 очень
душно
1009.9 993.4
03 18.09 СЗ 2 20 км н/о +31.1 +21.3 56 +39 +39 очень
душно
1008.8 992.4
04 18.09 СЗ 3 20 км н/о +31.5 +21.1 54 +39 +39 очень
душно
1008.2 991.9
05 18.09 З 2 20 км н/о +31.0 +20.9 55 +38 +38 очень
душно
1008.1 991.7
06 18.09 З 2 20 км н/о +31.3 +21.8 57 +40 +40 очень
душно
1007.3 991.0
07 18.09 СЗ 2 20 км н/о +30.3 +20.8 57 +38 +38 очень
душно
1007.4 991.0
09 18.09 З 2 20 км н/о +26.3 +18.7 63 +31 +31 душно 1009.1 992.5
10 18.09 З 1 20 км н/о +24.9 +18.4 67 +29 +29 душно 1009.7 993.0
11 18.09 З 2 20 км н/о +24.6 +17.4 64 +29 +29 душно 1010.9 994.1
13 18.09 Ю 1 20 км н/о +23.0 +17.5 71 +28 +28 душно 1011.5 994.6
14 18.09 В 1 20 км н/о +21.9 +17.5 76 +26 +26 душно 1011.4 994.4
15 18.09 СЗ 1 20 км н/о +21.1 +16.5 75 +25 +25 комфорт 1011.6 994.6
16 18.09 З 1 20 км н/о +20.3 +16.9 81 +25 +25 комфорт 1012.0 994.9
17 18.09 ЮЗ 1 20 км н/о +19.7 +17.3 86 +23 +23 комфорт 1012.2 995.1
18 18.09 З 1 20 км н/о +18.9 +17.2 90 +21 +21 комфорт 1012.4 995.2
19 18.09 З 1 20 км н/о +18.3 +17.0 92 +20 +20 1012.6 995.4
20 18.09 СЗ 1 20 км н/о +17.6 +16.8 95 +19 +19 1012.7 995.4
21 18.09 СЗ 1 20 км н/о +17.4 +16.6 95 +18 +18 1012.9 995.6
22 18.09 ЮВ 1 20 км н/о +18.0 +16.7 92 +20 +20 1013.2 996.0
23 18.09 В 1 20 км н/о +19.9 +17.3 85 +24 +24 комфорт 1013.4 996.3
00 19.09 ЮВ 1 20 км н/о +22.4 +17.8 75 +27 +27 душно 1013.6 996.6 +17.2
01 19.09 СЗ 2 20 км н/о +24.3 +15.8 59 +27 +27 жарко 1013.5 996.7
02 19.09 З 2 20 км н/о +26.7 +14.5 47 +29 +29 жарко 1012.8 996.1
03 19.09 СЗ 1 20 км н/о +29.1 +12.9 37 +30 +30 жарко 1012.0 995.5
04 19.09 СЗ 1 20 км н/о +29.8 +11.4 32 +30 +30 жарко 1011.0 994.5
05 19.09 СЗ 2 20 км н/о +30.7 +11.2 30 +31 +31 жарко 1010.2 993.8
06 19.09 СЗ 2 20 км н/о +31.2 +12.1 31 +32 +32 жарко 1009.7 993.3
07 19.09 Ю 3 20 км н/о +29.6 +16.1 44 +33 +33 душно 1009.5 993.0
08 19.09 Ю 4 20 км н/о +28.1 +16.4 49 +32 +32 душно 1010.1 993.5
09 19.09 Ю 3 20 км н/о +26.1 +15.8 53 +29 +29 жарко 1011.0 994.3
10 19.09 Ю 2 20 км н/о +24.6 +15.8 58 +28 +28 душно 1011.9 995.1
11 19.09 СВ 2 20 км н/о +22.8 +17.1 70 +28 +28 душно 1012.7 995.8
12 19.09 ЮЗ 1 20 км н/о +21.4 +17.2 77 +25 +25 комфорт 1013.3 996.3 +31.5
13 19.09 СВ 1 20 км н/о +20.1 +17.3 84 +24 +24 комфорт 1013.3 996.2
14 19.09 З 1 20 км н/о +19.3 +16.7 85 +22 +22 комфорт 1013.7 996.5
15 19.09 штиль 0 20 км н/о +18.3 +16.6 90 +19 +19 1013.3 996.1
16 19.09 штиль 0 20 км н/о +18.0 +16.7 92 +18 +18 1012.9 995.7
18 19.09 ЮВ 1 20 км н/о +18.4 +16.7 90 +21 +21 комфорт 1012.2 995.0
19 19.09 Ю 1 20 км н/о +18.6 +16.6 88 +21 +21 комфорт 1012.2 995.0
20 19.09 Ю 1 20 км в посл. час дождь н/о +18.7 +16.3 86 +21 +21 комфорт 1012.3 995.1
21 19.09 СЗ 1 20 км {дождь} н/о +18.7 +16.9 89 +21 +21 комфорт 1012.7 995.5
22 19.09 С 1 16 км слаб. дождь н/о +19.1 +16.7 86 +22 +22 комфорт 1013.1 995.9
23 19.09 СЗ 1 19 км слаб. дождь н/о +19.5 +17.5 88 +23 +23 комфорт 1013.4 996.2
00 20.09 Ю 1 17 км слаб. дождь н/о +19.8 +17.2 85 +24 +24 комфорт 1013.5 996.4 +17.7 0.0
01 20.09 З 1 15 км в посл. час дождь н/о +20.3 +17.5 84 +25 +25 комфорт 1013.8 996.7
02 20.09 З 1 20 км слаб. дождь н/о +21.4 +17.8 80 +26 +26 душно 1013.3 996.3
03 20.09 СЗ 1 16 км слаб. дождь н/о +21.6 +19.4 87 +27 +27 душно 1012.8 995.8
04 20.09 С 1 20 км слаб. дождь н/о +22.5 +18.9 80 +28 +28 душно 1012.3 995.4
05 20.09 З 1 4700 м слаб. дождь н/о +21.3 +20.5 95 +27 +27 душно 1012.7 995.7
06 20.09 З 1 7000 м слаб. дождь н/о +21.1 +20.9 99 +26 +26 душно 1012.6 995.6 4
07 20.09 ЮЗ 1 20 км в посл. час дождь н/о +22.0 +21.2 95 +28 +28 душно 1012.6 995.6
08 20.09 ЮВ 1 20 км н/о +22.1 +20.4 90 +28 +28 душно 1013.3 996.3
09 20.09 ЮВ 1 20 км в посл. час дождь н/о +22.2 +20.7 91 +29 +29 очень
душно
1013.4 996.4
10 20.09 В 1 20 км н/о +21.7 +20.4 92 +27 +27 душно 1013.8 996.8
11 20.09 В 1 19 км слаб. дождь н/о +21.1 +20.4 96 +26 +26 душно 1014.4 997.3
12 20.09 СЗ 1 20 км в посл. час дождь н/о +21.0 +20.3 96 +28 +28 очень
душно
1014.7 997.6 +23.0 4
13 20.09 СВ 1 18 км н/о +21.0 +20.7 98 +28 +28 очень
душно
1014.8 997.7
14 20.09 ЮЗ 1 20 км н/о +20.9 +20.2 96 +27 +27 душно 1014.8 997.7
15 20.09 В 2 20 км н/о +21.7 +19.1 85 +27 +27 душно 1014.4 997.4
16 20.09 ЮВ 4 20 км н/о +22.4 +18.4 78 +28 +28 душно 1014.3 997.3
17 20.09 ЮВ 4 20 км н/о +22.0 +18.2 79 +27 +27 душно 1014.4 997.4
18 20.09 ЮВ 3 20 км н/о +22.5 +18.3 77 +28 +28 душно 1013.8 996.8
19 20.09 С 2 20 км н/о +21.0 +18.6 86 +26 +26 душно 1012.8 995.8
20 20.09 В 5 20 км н/о +23.5 +18.8 75 +28 +28 душно 1012.5 995.6
21 20.09 В 8 20 км н/о +23.6 +19.1 76 +28 +28 душно 1012.9 996.0
22 20.09 В 5 20 км н/о +24.0 +19.3 75 +29 +29 душно 1012.8 996.0
23 20.09 В 7 20 км н/о +25.5 +19.6 70 +31 +31 очень
душно
1012.8 996.0
00 21.09 В 6 20 км н/о +25.7 +20.1 71 +32 +32 очень
душно
1012.8 996.1 +20.6
01 21.09 В 5 20 км н/о +26.7 +20.5 69 +33 +33 очень
душно
1012.7 996.0
02 21.09 В 4 20 км н/о +27.3 +20.9 68 +34 +34 очень
душно
1011.9 995.3
03 21.09 В 6 20 км в посл. час дождь н/о +28.0 +21.1 66 +35 +35 очень
душно
1011.2 994.6
04 21.09 В 6 20 км н/о +28.1 +21.6 68 +36 +36 очень
душно
1010.4 993.8
06 21.09 В 5 20 км {дождь} н/о +27.7 +21.7 70 +36 +36 очень
душно
1008.9 992.3 0.0
07 21.09 В 5 20 км н/о +27.6 +21.4 69 +35 +35 очень
душно
1009.0 992.4
08 21.09 В 3 20 км н/о +27.2 +21.7 72 +35 +35 очень
душно
1009.3 992.7
09 21.09 В 3 20 км н/о +26.9 +21.4 72 +34 +34 очень
душно
1009.9 993.3
10 21.09 В 2 20 км в посл. час дождь н/о +26.3 +21.7 76 +34 +34 очень
душно
1010.5 993.8
11 21.09 ЮВ 3 20 км н/о +26.3 +21.5 75 +34 +34 очень
душно
1010.7 994.0
13 21.09 ЮВ 1 20 км в посл. час дождь н/о +24.4 +21.9 86 +31 +31 очень
душно
1010.3 993.5
14 21.09 ЮВ 2 20 км слаб. дождь н/о +24.5 +21.8 85 +31 +31 очень
душно
1009.8 993.0
15 21.09 ЮВ 2 20 км слаб. дождь н/о +23.7 +22.3 92 +31 +31 очень
душно
1008.9 992.1
16 21.09 ЮВ 2 20 км слаб. дождь н/о +24.2 +22.3 89 +31 +31 очень
душно
1007.9 991.1
17 21.09 В 5 20 км в посл. час дождь н/о +26.0 +21.4 76 +33 +33 очень
душно
1007.1 990.5
18 21.09 ЮВ 5 20 км слаб. дождь н/о +26.4 +21.6 75 +34 +34 очень
душно
1006.5 989.9 0.0
19 21.09 В 3 20 км слаб. дождь н/о +25.6 +21.9 80 +33 +33 очень
душно
1005.9 989.3
20 21.09 В 3 20 км слаб. дождь н/о +26.5 +21.5 74 +34 +34 очень
душно
1005.0 988.4
21 21.09 ЮВ 3 10 км слаб. дождь н/о +24.9 +22.4 86 +33 +33 очень
душно
1005.2 988.5
22 21.09 Ю 3 1900 м дождь н/о +23.7 +22.9 95 +31 +31 очень
душно
1005.3 988.6
23 21.09 ЮВ 7 20 км слаб. дождь н/о +25.8 +23.1 85 +34 +34 очень
душно
1004.4 987.8
00 22.09 ЮВ 7 7000 м слаб. дождь н/о +25.6 +23.1 86 +34 +34 очень
душно
1003.5 986.9 +23.5 10
01 22.09 ЮВ 7 5000 м слаб. дождь н/о +25.4 +23.1 87 +34 +34 очень
душно
1003.2 986.6
02 22.09 ЮВ 7 8000 м слаб. дождь н/о +25.6 +23.5 88 +35 +35 очень
душно
1002.0 985.4
03 22.09 ЮВ 7 7000 м дождь н/о +25.3 +23.7 91 +34 +34 очень
душно
1000.9 984.3
04 22.09 В 3 16 км слаб. дождь н/о +25.4 +24.4 94 +35 +35 очень
душно
1000.4 983.8
05 22.09 ЮВ 6 20 км слаб. дождь н/о +26.4 +23.7 85 +36 +36 очень
душно
998.6 982.1
06 22.09 ЮВ 4 18 км слаб. дождь н/о +26.9 +23.6 82 +37 +37 очень
душно
998.0 981.6 19
07 22.09 Ю 6 15 км слаб. дождь н/о +26.7 +22.8 79 +35 +35 очень
душно
997.6 981.2
08 22.09 Ю 9 6000 м слаб. дождь н/о +25.0 +23.1 89 +33 +33 очень
душно
997.5 981.0
09 22.09 Ю 8 10 км слаб. дождь н/о +25.8 +23.3 86 +35 +35 очень
душно
997.3 980.8
10 22.09 Ю 6 6000 м слаб. дождь н/о +25.5 +23.4 88 +34 +34 очень
душно
997.9 981.4
11 22.09 Ю 3 6000 м слаб. дождь н/о +25.2 +23.6 91 +34 +34 очень
душно
998.9 982.4
13 22.09 ЮЗ 2 15 км слаб. дождь н/о +24.3 +22.0 87 +31 +31 очень
душно
1001.7 985.1
14 22.09 ЮЗ 4 14 км слаб. дождь н/о +24.0 +21.1 84 +30 +30 очень
душно
1002.6 985.9
15 22.09 З 2 20 км слаб. дождь н/о +23.6 +21.1 86 +30 +30 очень
душно
1003.7 987.0
16 22.09 З 1 20 км слаб. дождь н/о +22.4 +20.9 91 +29 +29 очень
душно
1004.9 988.1
17 22.09 З 1 11 км слаб. дождь н/о +21.9 +21.1 95 +28 +28 душно 1005.7 988.8
18 22.09 СЗ 2 14 км слаб. дождь н/о +21.7 +20.5 93 +27 +27 душно 1006.4 989.5 0.0
19 22.09 З 2 20 км слаб. дождь н/о +21.8 +19.7 88 +27 +27 душно 1007.5 990.6
20 22.09 З 2 20 км слаб. дождь н/о +20.6 +19.8 95 +26 +26 душно 1008.8 991.8
22 22.09 З 2 20 км н/о +20.5 +19.0 91 +25 +25 комфорт 1010.5 993.5
23 22.09 З 2 20 км н/о +22.5 +18.9 80 +28 +28 душно 1011.1 994.2

 

Местоположение метеостанции Хитоёси (Япония): широта 32.22 долгота 130.75 высота над уровнем моря 147 м.

В архиве по умолчанию представлена погода в Хитоёси за последнюю неделю. Архивные данные за месяц целиком и за предыдущие месяцы, начиная с января 2011 года, Вы можете получить, выбрав интересующий диапазон дат из раскрывающегося списка и нажав кнопку "Ввод!".


*Определитесь, кто Вы:
робот инопланетянин человек

Внимание! Время в таблицах - всемирное. Для получения местного времени необходимо прибавить поправку, которая равна 9 ч.

Смотрите также архив погоды в соседних городах и на ближайших метеорологических станциях:

Погода в Акуне (Япония) (57 км)
Погода в Мияконодзё (Япония) (63 км)
Погода в Кумамото (Япония) (67 км)
Погода в Миядзаки (Япония) (70 км)
Погода на Ундзэне (Япония) (73 км)
Погода в Кагосиме (Япония) (77 км)
Погода на Асо (Япония) (79 км)
Погода в Ушибуке (Япония) (88 км)
Погода в Нобеоке (Япония) (94 км)
Погода в Абурацу (Япония) (94 км)

Пояснения к столбцам:

Ветер - указаны скорость ветра в м/с - средняя за 10 мин, порывы в срок и между сроками (в фигурных скобках) и направление, откуда дует ветер: С - северный, СВ - северо-восточный, В - восточный, ЮВ - юго-восточный, Ю - южный, ЮЗ - юго-западный, З - западный, СЗ - северо-западный.
Видимость - горизонтальная дальность видимости в метрах или километрах. При видимости от 1 до 10 км при отсутствии осадков обычно наблюдается дымка, при ухудшении видимости до 1 км и менее - туман. В сухую погоду видимость может ухудшаться дымом, пылью или мглою.
Явления - указаны атмосферные явления, наблюдавшиеся в срок или в последний час перед сроком; фигурными скобками обозначены явления, наблюдавшиеся между сроками (за 1-3 часа до срока); квадратными скобками обозначены град или гололедные отложения с указанием их диаметра в мм.
Облачность - указаны через наклонную черту общая и нижняя облачность в баллах и высота нижней границы облаков в метрах; квадратными скобками обозначены формы облаков: Ci - перистые, Cs - перисто-слоистые, Cc - перисто-кучевые, Ac - высококучевые, As - высокослоистые, Sc - слоисто-кучевые, Ns - слоисто-дождевые, Cu - кучевые, Cb - кучево-дождевые. Подробнее классификацию облаков см. в Атласе облаков (PDF).
T - Температура воздуха - температура, измеренная на высоте 2 м над землей.
Td - Температура точки росы - температура, при понижении до которой содержащийся в воздухе водяной пар достигнет насыщения.
f - Относительная влажность воздуха - влажноcть воздуха, измеренная на высоте 2 м над землей.
Te - Эффективная температура - температура, которую ощущает одетый по сезону человек в тени. Характеристика душности погоды. При расчете учитывается влияние влажности воздуха и скорости ветра на теплоощущения человека.
Tes - Эффективная температура на солнце - температура, которую ощущает человек, с поправкой на солнечный нагрев. Характеристика знойности погоды. Зависит от высоты солнца над горизонтом, облачности и скорости ветра. Ночью, в пасмурную погоду, а также при ветре 12 м/с и более поправка равна нулю.
P - Атмосферное давление - приведенное к уровню моря атмосферное давление.
Po - Атмосферное давление - измеренное на уровне метеостанции атмосферное давление.
Tmin - Минимальная температура - минимум температуры воздуха на высоте 2 м над землей.
Tmax - Максимальная температура - максимум температуры воздуха на высоте 2 м над землей.
R - Количество осадков - Количество выпавших осадков за период времени, мм. При наведении курсора мыши на число - период времени, за который выпало указанное количество осадков.
R24 - Количество осадков - Количество выпавших осадков за 24 часа, мм.
S - Снежный покров - Высота снежного покрова, см. При наведении курсора мыши на число - состояние снежного покрова и степень покрытия местности в баллах.